This is the latest recevied weather packets stored in our database for station/object DC7RY. If no packets are shown the sender has not sent any weather packets the latest 10 day(s).
| Time | Temp. | Humidity | Pressure | Rain* | Wind** | Luminosity | Snow |
|---|---|---|---|---|---|---|---|
| 1776977419 | 8.89° C | 57% | 1018.1 hPa | 0 mm | - | 0 W/m² | - |
| 1776976827 | 8.33° C | 57% | 1018 hPa | 0 mm | - | 0 W/m² | - |
| 1776976219 | 8.89° C | 56% | 1017.9 hPa | 0 mm | - | 0 W/m² | - |
| 1776975625 | 9.44° C | 59% | 1018 hPa | 0 mm | - | 0 W/m² | - |
| 1776975018 | 9.44° C | 56% | 1017.8 hPa | 0 mm | - | 0 W/m² | - |
| 1776974425 | 10° C | 53% | 1017.6 hPa | 0 mm | - | 0 W/m² | - |
| 1776973817 | 11.11° C | 51% | 1017.8 hPa | 0 mm | - | 0 W/m² | - |
| 1776973226 | 12.22° C | 50% | 1017.9 hPa | 0 mm | - | 0 W/m² | - |
| 1776972617 | 12.78° C | 45% | 1017.8 hPa | 0 mm | - | 0 W/m² | - |
| 1776972024 | 13.33° C | 38% | 1017.7 hPa | 0 mm | - | 0 W/m² | - |
| 1776971415 | 13.89° C | 36% | 1017.6 hPa | 0 mm | - | 0 W/m² | - |
| 1776970823 | 14.44° C | 36% | 1017.5 hPa | 0 mm | - | 0 W/m² | - |
| 1776970215 | 15° C | 33% | 1017.6 hPa | 0 mm | - | 0 W/m² | - |
| 1776969623 | 15.56° C | 32% | 1017.2 hPa | 0 mm | - | 0 W/m² | - |
| 1776969030 | 16.11° C | 30% | 1017.2 hPa | 0 mm | - | 0 W/m² | - |
| 1776968422 | 16.67° C | 29% | 1017.2 hPa | 0 mm | - | 4 W/m² | - |
| 1776967830 | 17.22° C | 27% | 1017 hPa | 0 mm | - | 25 W/m² | - |
| 1776967222 | 17.78° C | 26% | 1016.9 hPa | 0 mm | - | 58 W/m² | - |
| 1776966630 | 18.33° C | 27% | 1016.9 hPa | 0 mm | - | 91 W/m² | - |
| 1776966021 | 18.89° C | 27% | 1017 hPa | 0 mm | - | 118 W/m² | - |
| 1776965424 | 18.89° C | 26% | 1016.9 hPa | 0 mm | - | 143 W/m² | - |
| 1776964825 | 18.89° C | 25% | 1016.9 hPa | 0 mm | - | 164 W/m² | - |
| 1776964217 | 19.44° C | 24% | 1016.8 hPa | 0 mm | - | 185 W/m² | - |
| 1776963623 | 19.44° C | 23% | 1016.9 hPa | 0 mm | - | 201 W/m² | - |
| 1776963015 | 20° C | 24% | 1016.8 hPa | 0 mm | - | 221 W/m² | - |
* Rain latest hour (hover to see other rain measurements)
** Current wind speed in m/s (hover to see current wind gust speed)